Probability
20 21 20 19 19 20 19 18 18 17 16 15 16 18 16 12 10 9 6 4 3 2 2 3 3 3 2 2 3 5 6 6 6 6 7 7 6 5 2 0 0 0 0
18 18 19 18 18 18 18 17 16 16 15 15 16 16 14 10 7 6 5 4 3 2 2 3 3 3 2 1 2 4 5 6 5 4 5 6 6 5 2 0 0 0 0
16 17 18 19 19 18 18 18 17 16 16 15 15 14 10 7 4 4 3 3 3 3 3 3 3 3 3 2 2 3 4 4 4 2 2 4 5 4 1 0 0 0 0
17 17 18 20 20 20 20 20 19 18 17 17 15 11 7 5 4 4 3 1 1 3 3 3 3 3 3 3 4 4 3 3 2 1 1 1 2 1 0 0 0 0 0
18 17 17 18 18 18 18 17 17 15 15 16 13 8 6 5 4 3 2 1 1 2 3 3 3 3 2 3 3 3 3 2 1 0 0 0 0 0 0 0 0 0 0
17 16 15 15 14 12 10 11 11 11 11 11 9 7 6 4 3 2 1 0 0 1 2 3 3 1 1 1 1 1 1 1 0 0 0 0 0 0 0 0 0 0 0
14 13 12 11 9 6 5 6 6 7 8 7 6 6 5 3 1 0 0 0 0 2 4 5 3 1 0 1 1 0 0 0 0 0 0 0 0 0 0 0 0 0 0
9 9 8 6 4 4 3 4 4 4 5 5 4 5 4 2 0 0 0 0 1 3 5 5 3 1 0 1 2 1 0 0 0 0 0 0 0 0 0 0 0 0 0
6 5 3 3 3 3 4 4 3 2 3 3 3 4 4 2 0 0 0 0 2 4 5 3 2 1 0 1 2 2 1 0 0 0 0 0 0 0 0 0 0 0 0
4 3 2 2 3 4 5 5 4 3 2 2 3 4 5 4 2 0 0 0 2 4 3 1 0 0 0 0 1 1 1 0 0 0 0 0 0 0 0 0 0 0 0
2 1 1 1 2 3 5 5 4 3 1 1 3 5 6 5 2 0 0 0 1 1 1 0 0 0 0 0 0 0 0 0 0 0 0 0 0 0 0 1 1 1 1
2 1 0 1 2 3 4 4 3 2 1 0 2 4 5 4 1 0 0 0 0 0 0 0 0 0 0 0 0 0 0 0 0 0 0 0 0 0 1 1 2 3 2
3 1 1 2 2 3 3 3 2 2 1 0 1 1 2 2 1 0 0 0 0 0 0 0 0 0 0 0 0 0 0 0 0 1 0 0 0 1 2 3 3 3 3
3 2 1 1 2 2 1 1 1 1 0 0 0 0 1 1 0 0 0 0 0 0 0 0 0 0 0 0 0 0 0 0 0 1 1 1 1 2 3 3 3 3 3
2 1 0 1 1 1 0 0 0 1 0 0 0 0 0 0 0 0 0 0 0 0 0 0 0 0 0 0 0 0 0 0 0 0 1 2 2 2 2 2 2 2 1
2 1 0 1 2 1 0 0 0 0 0 0 0 0 0 0 0 0 0 0 0 0 0 0 0 0 0 0 0 0 0 0 0 0 1 1 1 1 1 1 1 1 0
3 2 0 0 1 0 0 0 0 0 0 0 0 0 0 0 0 0 0 0 0 0 0 0 0 0 0 0 0 0 0 0 0 0 0 0 0 0 0 0 0 0 0
2 1 0 0 0 0 0 0 0 0 0 0 0 0 0 0 0 0 0 0 0 0 0 0 0 0 0 0 0 0 0 0 0 0 0 0 0 0 0 0 0 0 0
3 1 0 0 0 0 0 0 0 0 0 0 0 0 0 0 0 0 0 0 0 0 0 0 0 0 0 0 0 0 0 0 0 0 0 0 0 0 0 0 0 0 0
3 1 0 0 0 0 0 0 0 0 0 0 0 0 0 0 1 0 0 0 0 0 0 1 1 1 1 1 1 0 0 0 0 0 0 0 0 0 0 0 0 0 0
1 0 0 0 0 0 0 0 0 0 0 0 0 0 0 0 0 0 0 0 0 0 1 2 2 2 2 2 2 1 0 0 0 0 0 0 0 0 0 0 0 0 0
0 0 0 1 1 0 0 0 0 0 0 0 0 0 0 0 0 0 0 0 0 0 1 2 3 3 3 3 2 1 0 0 0 0 0 0 0 0 0 0 0 0 0
0 0 1 1 1 0 0 0 0 0 0 0 0 0 0 0 0 0 0 0 0 0 1 2 2 2 2 2 2 1 0 0 0 0 0 0 0 0 0 0 0 0 0
0 0 1 2 1 0 0 0 0 0 0 0 0 0 0 0 0 0 0 0 0 0 0 1 1 1 1 1 1 0 0 0 0 0 0 0 0 0 0 0 0 0 0
0 1 2 2 1 0 0 0 0 0 0 0 0 0 0 0 0 0 0 0 0 0 0 0 0 0 0 0 0 0 0 0 0 0 0 0 0 0 0 0 0 0 0
0 1 2 2 1 0 0 0 0 0 0 0 0 0 0 0 0 0 0 0 0 0 0 0 0 0 0 0 0 0 0 0 0 0 0 0 0 0 0 0 0 0 0
Wind_Speed
4 3 2 2 2 2 1 1 1 1 2 2 2 2 2 2 2 2 3 3 3 3 3 3 4 4 3 3 3 3 3 3 4 4 3 2 2 3 3 3 4 4 5
4 3 3 2 1 1 1 1 1 2 2 2 3 3 3 3 2 3 4 3 3 3 4 3 4 3 3 3 3 4 3 3 3 5 4 3 3 3 3 4 4 4 3
4 3 3 3 2 2 1 1 2 2 3 3 3 3 3 2 2 3 4 4 4 3 3 3 3 4 4 3 4 4 3 4 3 4 5 3 3 3 3 4 4 3 4
3 3 3 2 2 2 2 2 2 3 3 3 3 3 3 2 2 3 3 4 3 3 3 4 4 4 4 5 5 4 4 4 4 4 4 4 3 3 2 2 3 3 3
3 3 2 2 2 2 2 2 3 3 3 2 2 3 3 2 2 2 3 4 4 4 4 4 5 4 5 5 5 4 4 4 4 4 4 4 3 2 2 2 3 3 3
3 3 3 2 2 1 2 2 2 2 2 2 3 3 3 2 1 2 3 4 4 5 5 5 5 5 5 6 8 8 6 5 5 4 4 4 5 4 3 3 2 3 3
2 3 3 2 2 2 2 1 1 2 2 2 3 3 2 1 2 2 4 4 5 5 5 5 6 5 3 3 5 7 8 10 10 7 6 7 6 5 4 4 3 4 4
2 2 2 2 2 1 1 1 1 1 2 2 3 2 2 2 2 3 4 4 5 5 5 4 5 4 4 4 5 5 5 5 6 6 7 7 7 5 4 4 4 4 4
1 1 1 1 1 1 0 0 1 1 2 3 3 2 1 1 2 2 3 4 4 5 5 4 3 3 4 4 3 4 5 5 6 5 6 7 8 8 6 3 3 3 4
1 1 0 1 1 1 0 0 1 2 2 3 2 2 1 1 1 2 2 3 4 4 4 3 3 3 3 3 3 4 5 5 5 5 4 5 5 6 7 6 5 4 4
1 1 0 1 1 1 1 1 1 2 2 2 3 2 1 1 2 3 3 2 4 4 4 4 2 2 3 4 3 4 6 6 5 4 4 4 4 3 4 4 5 5 4
1 1 1 1 1 0 1 1 2 2 2 3 3 3 1 1 1 2 4 5 4 4 4 4 4 4 5 6 5 6 7 6 4 4 4 4 3 3 3 4 4 5 5
1 1 1 1 1 1 1 2 2 2 2 2 3 2 1 0 0 1 3 5 5 4 4 7 7 8 7 5 6 7 5 4 4 4 4 4 3 4 3 3 3 3 4
2 1 1 1 2 1 1 2 1 1 2 2 2 2 2 2 2 2 2 2 4 4 5 6 7 7 5 5 5 4 3 3 3 4 4 4 3 3 2 2 2 2 3
2 2 2 3 2 1 1 1 1 1 1 1 2 3 3 3 3 3 3 3 3 4 5 4 3 3 3 3 3 3 3 2 2 3 3 4 3 3 3 3 2 2 3
2 2 2 2 2 2 2 1 1 0 1 1 1 1 1 2 3 4 5 5 6 5 3 3 3 3 3 3 4 3 2 3 3 3 3 3 4 4 4 3 2 2 3
2 2 3 2 2 2 2 1 1 1 3 4 4 3 4 5 5 6 6 7 7 2 2 3 3 3 3 3 3 3 3 3 3 3 3 4 4 4 4 4 4 3 4
3 3 3 3 2 2 2 2 2 2 2 2 4 6 7 6 6 6 6 5 4 1 2 3 3 3 3 3 3 3 4 4 3 3 3 3 3 4 4 4 4 4 4
3 2 3 3 3 3 2 3 2 1 1 1 1 2 5 6 6 5 3 2 3 3 3 3 3 4 4 4 3 3 3 4 4 4 4 4 4 4 4 4 4 5 4
3 3 4 4 3 3 3 3 2 2 2 2 1 1 0 2 2 2 1 2 3 3 4 4 4 4 4 4 4 4 4 4 5 4 4 4 4 4 5 6 5 4 3
4 4 4 4 3 3 2 3 3 3 3 2 1 1 2 2 2 2 2 2 2 3 4 4 4 4 4 4 5 5 5 4 4 4 5 5 5 4 4 5 5 4 4
3 2 3 3 2 2 2 3 3 3 2 2 1 1 2 2 2 3 3 3 3 2 3 3 4 4 4 5 5 5 5 5 5 5 6 6 5 5 5 5 5 4 4
4 3 3 2 2 2 3 3 3 3 2 2 2 1 1 2 2 3 3 3 3 3 3 3 3 4 5 5 5 5 5 6 6 7 7 7 6 5 5 5 5 5 5
4 4 3 3 3 2 2 2 2 2 2 2 2 2 2 2 2 3 3 3 3 3 3 3 4 6 8 6 5 5 6 6 7 6 8 7 7 6 5 5 5 5 4
4 3 3 3 2 2 2 2 2 2 2 2 2 2 2 2 2 3 3 3 3 3 4 4 4 5 7 8 8 7 6 6 6 7 7 6 7 6 6 6 5 5 5
4 4 4 3 2 2 2 2 1 1 1 1 1 2 2 2 3 3 3 3 3 3 3 3 5 6 7 6 7 6 6 7 8 8 7 6 5 5 6 5 6 5 5
Wind_Direction
167 165 174 181 192 206 213 210 216 240 248 261 259 246 251 253 257 263 268 260 257 263 271 273 275 281 289 296 292 287 281 275 279 289 286 270 262 265 255 250 243 229 218
166 161 172 186 202 229 245 240 229 250 254 256 260 255 258 256 249 260 271 276 267 269 271 278 286 288 285 283 283 282 283 277 269 282 287 281 270 259 238 248 260 255 242
159 170 177 188 203 221 232 247 242 247 254 255 260 259 264 270 270 268 273 275 267 267 271 279 283 285 282 282 279 279 280 285 273 271 279 278 273 272 257 256 258 255 260
168 169 175 182 199 217 228 243 248 249 254 256 255 262 268 268 273 282 278 277 282 283 282 281 279 278 277 279 275 272 277 278 276 272 274 276 272 274 263 251 261 247 255
157 160 167 167 188 220 231 244 252 259 267 276 282 279 274 272 301 329 311 295 296 291 287 284 280 276 275 272 277 277 277 269 275 278 282 281 279 287 281 275 276 266 257
168 171 167 165 173 210 233 241 256 272 289 287 285 288 295 310 353 337 317 308 299 293 290 291 287 264 265 263 264 263 261 263 268 270 275 277 277 278 283 281 285 284 276
180 179 170 175 190 218 250 258 279 287 290 288 282 282 285 307 307 303 309 296 288 288 289 289 295 301 291 288 277 266 259 252 244 246 261 267 271 272 276 279 273 271 273
190 188 177 190 198 224 283 331 318 304 293 288 284 280 275 280 271 283 301 285 278 280 277 274 280 292 309 305 299 295 285 281 261 241 242 254 260 265 260 258 260 271 271
174 193 194 216 222 231 244 284 287 294 292 284 277 273 272 292 266 273 291 291 287 286 280 278 281 293 301 303 301 305 310 307 301 279 249 251 257 261 248 249 252 254 274
159 154 239 243 235 232 217 224 271 277 274 283 296 280 273 267 250 266 278 291 305 306 297 277 263 271 283 297 294 299 297 299 307 314 302 274 262 258 243 223 233 244 260
153 137 162 255 256 198 186 245 260 266 283 292 293 279 262 236 244 240 239 275 303 309 313 316 321 313 290 283 277 278 279 293 301 298 297 290 276 265 256 238 225 227 242
139 139 151 229 269 197 216 246 255 261 276 277 276 278 266 264 266 246 240 254 286 303 306 317 338 335 310 294 280 271 282 296 291 291 289 289 288 282 271 260 245 231 234
144 148 165 184 286 279 244 253 248 242 256 274 281 282 289 33 356 292 273 281 290 285 299 311 315 308 304 293 275 276 282 281 280 284 287 285 279 274 273 273 269 256 257
158 152 195 215 240 239 262 267 267 270 274 286 309 339 3 32 29 10 324 301 287 286 296 302 302 294 288 284 292 289 271 274 280 286 288 286 285 286 277 275 274 274 267
177 195 223 227 228 214 245 291 295 5 7 340 360 7 4 2 345 328 316 315 325 335 326 305 307 317 317 305 294 293 295 303 303 300 304 308 306 300 292 285 274 266 269
192 209 234 234 221 222 216 205 53 101 124 180 216 251 324 303 297 308 310 305 309 322 323 298 307 317 320 327 328 325 324 326 323 314 313 314 316 314 307 302 295 291 284
213 224 251 253 243 245 251 238 192 210 238 246 241 240 238 264 289 296 304 312 307 317 307 300 308 312 315 321 324 327 332 334 330 325 322 316 315 318 316 315 313 310 303
221 226 255 261 265 273 276 272 250 227 220 215 223 233 240 248 262 284 310 325 312 286 279 300 309 315 324 331 336 344 343 337 330 321 321 320 322 323 321 317 314 315 309
226 231 242 264 272 274 277 279 280 284 294 277 176 206 239 249 258 276 287 280 299 316 325 324 329 338 346 347 346 348 343 337 340 344 343 337 332 329 323 318 315 315 305
215 236 254 265 272 280 285 299 314 327 320 322 351 9 280 259 279 287 237 265 305 326 342 349 352 349 348 348 348 351 350 348 349 348 348 340 331 330 324 317 318 319 309
220 211 231 260 270 287 303 313 318 317 319 327 2 348 309 301 307 320 352 6 352 348 355 349 347 346 353 353 352 352 350 347 351 347 336 328 324 323 321 319 322 324 328
240 224 224 245 269 296 306 302 300 304 316 325 337 336 338 330 352 6 13 10 3 356 1 348 343 348 356 355 352 351 355 359 356 346 334 327 323 321 323 326 329 332 336
242 234 232 240 254 254 265 277 287 296 305 324 335 353 9 359 4 3 6 11 9 5 359 351 351 359 7 8 9 16 13 1 345 333 328 323 324 328 329 327 329 334 336
245 241 235 236 249 260 267 278 289 303 317 341 5 9 2 7 14 12 18 21 16 8 4 4 12 16 18 16 16 30 23 360 340 331 329 322 321 327 331 330 328 329 332
247 247 247 246 250 260 271 280 294 308 326 360 6 1 352 9 23 28 28 21 11 1 3 15 20 21 18 21 25 26 9 351 345 334 322 315 319 329 329 331 335 335 338
248 245 246 246 242 255 270 287 310 331 5 20 11 13 14 18 23 30 28 13 1 2 8 22 21 24 21 30 28 20 1 350 344 335 322 312 319 335 336 333 338 339 339